FW4613 Weather Reports


Display with metric or nautical units.
time (UTC)temp
F
wind
direction
speed
MPH
gust
MPH
rain 1hr
in
rain 24hr
in
rain mn
in
humidity
%
barometer
mb
20260503212004 61 112 1.0 13.0 0.00 0.00 0.00 34 1013.1
20260503211524 61 87 3.0 15.0 0.00 0.00 0.00 34 1013.2
20260503211100 61 18 6.0 15.0 0.00 0.00 0.00 34 1013.3
20260503211002 61 74 8.0 15.0 0.00 0.00 0.00 33 1013.2
20260503210529 61 56 2.0 12.0 0.00 0.00 0.00 35 1013.2
20260503210050 60 12 6.0 13.0 0.00 0.00 0.00 33 1013.2
20260503205527 61 356 7.0 16.0 0.00 0.00 0.00 33 1013.3
20260503205011 61 143 6.0 16.0 0.00 0.00 0.00 34 1013.4
20260503204538 61 14 2.0 11.0 0.00 0.00 0.00 34 1013.4
20260503204053 61 321 3.0 11.0 0.00 0.00 0.00 35 1013.4
20260503203515 60 11 2.0 11.0 0.00 0.00 0.00 35 1013.4
20260503203052 61 228 4.0 11.0 0.00 0.00 0.00 34 1013.6
20260503202515 61 131 2.0 6.0 0.00 0.00 0.00 37 1013.4
20260503202056 60 92 2.0 9.0 0.00 0.00 0.00 37 1013.5
20260503201513 60 346 4.0 9.0 0.00 0.00 0.00 36 1013.5
20260503201039 60 4 2.0 8.0 0.00 0.00 0.00 36 1013.6
20260503200553 59 81 3.0 8.0 0.00 0.00 0.00 36 1013.6
20260503200014 59 88 3.0 18.0 0.00 0.00 0.00 37 1013.7
20260503195535 59 15 6.0 20.0 0.00 0.00 0.00 35 1013.9
20260503195015 59 58 8.0 20.0 0.00 0.00 0.00 36 1013.8
20260503194537 60 193 3.0 13.0 0.00 0.00 0.00 36 1013.9
20260503194016 59 49 2.0 16.0 0.00 0.00 0.00 36 1013.9
20260503193537 59 37 5.0 19.0 0.00 0.00 0.00 37 1014.2
20260503193102 59 146 10.0 19.0 0.00 0.00 0.00 36 1014.1
20260503192541 59 65 3.0 14.0 0.00 0.00 0.00 36 1014.2
20260503192020 59 25 5.0 13.0 0.00 0.00 0.00 35 1014.3
20260503191548 59 29 3.0 11.0 0.00 0.00 0.00 39 1014.2
20260503191015 59 59 2.0 9.0 0.00 0.00 0.00 36 1014.2
20260503190536 59 30 2.0 8.0 0.00 0.00 0.00 38 1014.3
20260503190020 59 139 2.0 11.0 0.00 0.00 0.00 37 1014.3
20260503185548 58 26 3.0 11.0 0.00 0.00 0.00 40 1014.4
20260503185015 57 32 2.0 17.0 0.00 0.00 0.00 37 1014.4
20260503184558 58 150 3.0 14.0 0.00 0.00 0.00 37 1014.3
20260503184011 57 58 7.0 13.0 0.00 0.00 0.00 36 1014.4
20260503183544 58 60 3.0 12.0 0.00 0.00 0.00 38 1014.5
20260503183009 58 60 5.0 17.0 0.00 0.00 0.00 36 1014.6
20260503182546 57 140 6.0 17.0 0.00 0.00 0.00 38 1014.6
20260503182012 57 83 6.0 14.0 0.00 0.00 0.00 37 1014.6
20260503181607 57 112 5.0 11.0 0.00 0.00 0.00 38 1014.7
20260503181013 57 62 5.0 11.0 0.00 0.00 0.00 38 1014.6
20260503180553 56 331 4.0 12.0 0.00 0.00 0.00 38 1014.7
20260503180035 56 156 4.0 14.0 0.00 0.00 0.00 37 1014.7
20260503175557 56 38 3.0 10.0 0.00 0.00 0.00 38 1014.6
20260503175024 57 108 3.0 15.0 0.00 0.00 0.00 41 1014.5
20260503174503 57 134 2.0 12.0 0.00 0.00 0.00 38 1014.6
20260503174043 56 152 3.0 15.0 0.00 0.00 0.00 39 1014.8
20260503173525 56 36 4.0 17.0 0.00 0.00 0.00 39 1014.8
20260503173013 56 37 5.0 17.0 0.00 0.00 0.00 38 1014.8
20260503172535 56 331 3.0 14.0 0.00 0.00 0.00 40 1014.8
20260503172024 55 75 7.0 14.0 0.00 0.00 0.00 38 1014.8
20260503171556 55 218 3.0 10.0 0.00 0.00 0.00 40 1014.8
20260503171039 56 15 2.0 9.0 0.00 0.00 0.00 40 1014.9
20260503170521 56 4 3.0 9.0 0.00 0.00 0.00 38 1014.8
20260503150544 51 113 2.0 8.0 0.00 0.00 0.00 49 1015.7
20260503131005 48 155 2.0 9.0 0.00 0.00 0.00 58 1015.4
20260503130546 48 146 3.0 9.0 0.00 0.00 0.00 57 1015.5
20260503110526 44 68 0.0 1.0 0.00 0.00 0.00 65 1014.8
20260503081531 42 25 0.0 3.0 0.00 0.00 0.00 70 1012.6
20260503081042 42 96 0.0 2.0 0.00 0.00 0.00 71 1012.7
20260503080516 42 98 0.0 1.0 0.00 0.00 0.00 71 1012.6
20260503072547 42 86 0.0 1.0 0.00 0.00 0.00 71 1012.4
20260503072021 43 112 0.0 1.0 0.00 0.00 0.00 71 1012.4
20260503071546 43 60 0.0 1.0 0.00 0.00 0.00 70 1012.4
20260503071003 43 60 0.0 1.0 0.00 0.00 0.00 70 1012.4
20260503070523 43 58 0.0 1.0 0.00 0.00 0.00 70 1012.4
20260503070105 43 58 0.0 2.0 0.00 0.00 0.00 70 1012.4
20260503055003 44 56 0.0 0.0 0.00 0.00 0.00 72 1013.0
20260503054539 44 55 0.0 0.0 0.00 0.00 0.00 72 1013.0
20260503054011 43 55 0.0 0.0 0.00 0.00 0.00 73 1013.0
20260503053548 43 55 0.0 0.0 0.00 0.00 0.00 73 1013.0
20260503053028 43 55 0.0 0.0 0.00 0.00 0.00 73 1013.1
20260503052552 44 55 0.0 0.0 0.00 0.00 0.00 73 1013.1
20260503052036 44 55 0.0 0.0 0.00 0.00 0.00 72 1013.2
20260503051557 45 55 0.0 0.0 0.00 0.00 0.00 70 1013.2
20260503051022 45 55 0.0 0.0 0.00 0.00 0.00 69 1013.3
20260503050554 45 55 0.0 0.0 0.00 0.00 0.00 69 1013.3
20260503050036 46 55 0.0 0.0 0.00 0.00 0.00 68 1013.4
20260503045516 46 55 0.0 0.0 0.00 0.00 0.00 66 1013.3
20260503045045 46 55 0.0 0.0 0.00 0.00 0.00 65 1013.4
20260503044526 47 55 0.0 0.0 0.00 0.00 0.00 65 1013.4
20260503044057 47 56 0.0 0.0 0.00 0.00 0.00 65 1013.4
20260503043521 47 56 0.0 0.0 0.00 0.00 0.00 64 1013.4
20260503043100 47 55 0.0 3.0 0.00 0.00 0.00 63 1013.3
20260503042525 48 56 0.0 3.0 0.00 0.00 0.00 62 1013.4
20260503042058 48 68 0.0 3.0 0.00 0.00 0.00 62 1013.4
20260503041522 48 65 0.0 3.0 0.00 0.00 0.00 62 1013.4
20260503041059 48 67 0.0 3.0 0.00 0.00 0.00 61 1013.5
20260503040521 48 55 0.0 3.0 0.00 0.00 0.00 61 1013.5
20260503040104 48 75 0.0 4.0 0.00 0.00 0.00 61 1013.6
20260503035535 49 321 0.0 4.0 0.00 0.00 0.00 60 1013.7
20260503035011 49 271 1.0 6.0 0.00 0.00 0.00 60 1013.6
20260503034543 49 113 1.0 6.0 0.00 0.00 0.00 60 1013.6
20260503034034 49 10 2.0 6.0 0.00 0.00 0.00 60 1013.7
20260503033556 49 91 0.0 7.0 0.00 0.00 0.00 60 1013.6
20260503033029 49 55 2.0 7.0 0.00 0.00 0.00 59 1013.6
20260503032551 48 60 2.0 7.0 0.00 0.00 0.00 59 1013.6
20260503032037 48 34 1.0 6.0 0.00 0.00 0.00 59 1013.6
20260503031511 49 27 2.0 8.0 0.00 0.00 0.00 59 1013.5
20260503031046 49 33 1.0 8.0 0.00 0.00 0.00 58 1013.6
20260503030510 49 79 1.0 6.0 0.00 0.00 0.00 58 1013.6
20260503030104 49 76 1.0 6.0 0.00 0.00 0.00 58 1013.6
20260503025525 48 86 0.0 2.0 0.00 0.00 0.00 58 1013.6
20260503025003 49 73 0.0 5.0 0.00 0.00 0.00 58 1013.5
20260503024542 49 68 1.0 3.0 0.00 0.00 0.00 57 1013.6
20260503024022 49 60 0.0 5.0 0.00 0.00 0.00 57 1013.7
20260503023600 49 39 1.0 5.0 0.00 0.00 0.00 57 1013.7
20260503023039 48 65 0.0 3.0 0.00 0.00 0.00 57 1013.6
20260503022515 49 11 0.0 2.0 0.00 0.00 0.00 57 1013.7
20260503022049 49 49 0.0 3.0 0.00 0.00 0.00 57 1013.7
20260503021531 49 15 0.0 3.0 0.00 0.00 0.00 57 1013.8
20260503021007 49 75 0.0 3.0 0.00 0.00 0.00 56 1013.8
20260503020542 49 70 0.0 3.0 0.00 0.00 0.00 56 1013.8
20260503020023 49 60 0.0 2.0 0.00 0.00 0.00 56 1013.7
20260503015546 49 40 0.0 2.0 0.00 0.00 0.00 56 1013.8
20260503015026 49 17 0.0 1.0 0.00 0.00 0.00 55 1013.7
20260503014606 49 58 0.0 1.0 0.00 0.00 0.00 55 1013.7
20260503014502 50 59 0.0 2.0 0.00 0.00 0.00 55 1013.7
20260503014041 50 68 0.0 2.0 0.00 0.00 0.00 54 1013.8
20260503013518 50 58 0.0 1.0 0.00 0.00 0.00 54 1013.7
20260503013055 50 53 0.0 1.0 0.00 0.00 0.00 54 1013.7
20260503012532 51 54 0.0 1.0 0.00 0.00 0.00 53 1013.5
20260503012015 51 51 0.0 1.0 0.00 0.00 0.00 52 1013.5
20260503011554 51 49 0.0 2.0 0.00 0.00 0.00 52 1013.5
20260503011029 51 53 0.0 2.0 0.00 0.00 0.00 52 1013.4
20260503010512 52 65 0.0 1.0 0.00 0.00 0.00 52 1013.5
20260503010048 52 60 0.0 3.0 0.00 0.00 0.00 52 1013.5
20260503005528 52 60 0.0 3.0 0.00 0.00 0.00 51 1013.3
20260503005003 52 27 0.0 3.0 0.00 0.00 0.00 51 1013.3
20260503004540 52 108 0.0 2.0 0.00 0.00 0.00 51 1013.3
20260503004021 52 70 0.0 1.0 0.00 0.00 0.00 51 1013.2
20260503003559 52 69 0.0 1.0 0.00 0.00 0.00 50 1013.2
20260503003501 52 69 0.0 1.0 0.00 0.00 0.00 51 1013.1
20260503003046 52 70 0.0 1.0 0.00 0.00 0.00 50 1013.1
20260503002519 53 70 0.0 3.0 0.00 0.00 0.00 50 1013.1
20260503002053 53 91 0.0 3.0 0.00 0.00 0.00 50 1013.1
20260503001535 53 56 0.0 2.0 0.00 0.00 0.00 49 1013.0
20260503001013 53 77 0.0 4.0 0.00 0.00 0.00 49 1012.9
20260503000547 53 70 0.0 4.0 0.00 0.00 0.00 48 1012.9
20260503000033 53 58 0.0 2.0 0.00 0.00 0.00 48 1012.9
20260502235507 54 54 0.0 2.0 0.00 0.00 0.00 47 1012.9
20260502235043 54 131 0.0 2.0 0.00 0.00 0.00 47 1012.8
20260502234528 54 36 0.0 3.0 0.00 0.00 0.00 46 1012.8
20260502234008 54 69 0.0 3.0 0.00 0.00 0.00 46 1012.7
20260502233547 54 82 0.0 2.0 0.00 0.00 0.00 46 1012.7
20260502233028 55 103 0.0 4.0 0.00 0.00 0.00 45 1012.7
20260502232503 55 86 0.0 4.0 0.00 0.00 0.00 45 1012.6
20260502232044 55 48 0.0 3.0 0.00 0.00 0.00 44 1012.6
20260502231521 55 102 0.0 2.0 0.00 0.00 0.00 44 1012.6
20260502231057 56 91 0.0 2.0 0.00 0.00 0.00 43 1012.6
20260502230536 56 65 0.0 4.0 0.00 0.00 0.00 43 1012.6
20260502230018 56 15 1.0 6.0 0.00 0.00 0.00 42 1012.6
20260502225553 56 140 0.0 6.0 0.00 0.00 0.00 42 1012.6
20260502225029 57 149 0.0 5.0 0.00 0.00 0.00 42 1012.7
20260502224508 57 178 0.0 5.0 0.00 0.00 0.00 42 1012.6
20260502224034 57 100 0.0 3.0 0.00 0.00 0.00 43 1012.6
20260502223548 57 108 0.0 4.0 0.00 0.00 0.00 43 1012.6
20260502223009 56 124 1.0 4.0 0.00 0.00 0.00 43 1012.5
20260502222529 56 88 0.0 4.0 0.00 0.00 0.00 43 1012.5
20260502222008 57 119 0.0 4.0 0.00 0.00 0.00 43 1012.5
20260502221545 57 111 0.0 4.0 0.00 0.00 0.00 43 1012.5
20260502221032 57 127 1.0 5.0 0.00 0.00 0.00 42 1012.3
20260502220516 58 115 0.0 5.0 0.00 0.00 0.00 42 1012.4
20260502220045 58 207 0.0 6.0 0.00 0.00 0.00 43 1012.4
20260502215522 58 131 2.0 8.0 0.00 0.00 0.00 42 1012.4
20260502215056 59 140 1.0 8.0 0.00 0.00 0.00 42 1012.4
20260502214532 60 115 1.0 6.0 0.00 0.00 0.00 42 1012.5
20260502214010 60 120 1.0 4.0 0.00 0.00 0.00 40 1012.4
20260502213543 60 130 0.0 4.0 0.00 0.00 0.00 39 1012.3
20260502213035 60 65 1.0 4.0 0.00 0.00 0.00 43 1012.3
20260502212549 59 152 0.0 2.0 0.00 0.00 0.00 44 1012.3